| time (UTC) | temp C | wind direction | speed KPH | gust KPH | rain 1hr cm | rain 24hr cm | rain mn cm | humidity % | barometer mb |
| 20260505041608 | 5 | 123 | 3.2 | 6.4 | 0.03 | 0.03 | 0.03 | 96 | 1012.3 |
| 20260505040056 | 4 | 145 | 1.6 | 4.8 | 0.03 | 0.03 | 0.03 | 96 | 1012.5 |
| 20260505034523 | 4 | 161 | 3.2 | 6.4 | 0.03 | 0.03 | 0.03 | 96 | 1012.5 |
| 20260505031544 | 3 | 152 | 1.6 | 4.8 | 0.00 | 0.00 | 0.00 | 93 | 1012.9 |
| 20260505030037 | 2 | 107 | 0.0 | 3.2 | 0.00 | 0.00 | 0.00 | 93 | 1013.1 |
| 20260505024519 | 2 | 107 | 0.0 | 1.6 | 0.00 | 0.00 | 0.00 | 93 | 1013.1 |
| 20260505021547 | 2 | 107 | 0.0 | 0.0 | 0.00 | 0.00 | 0.00 | 94 | 1013.3 |
| 20260505014554 | 1 | 107 | 0.0 | 0.0 | 0.00 | 0.00 | 0.00 | 95 | 1013.6 |
| 20260505011548 | 1 | 107 | 0.0 | 0.0 | 0.00 | 0.00 | 0.00 | 95 | 1014.0 |
| 20260505010058 | 1 | 107 | 0.0 | 0.0 | 0.00 | 0.00 | 0.00 | 95 | 1014.2 |
| 20260505004540 | 1 | 107 | 0.0 | 1.6 | 0.00 | 0.00 | 0.00 | 95 | 1014.4 |
| 20260505001535 | 1 | 107 | 0.0 | 0.0 | 0.00 | 0.00 | 0.00 | 96 | 1014.9 |
| 20260504234541 | 2 | 107 | 0.0 | 0.0 | 0.00 | 0.00 | 0.00 | 96 | 1015.1 |
| 20260504231548 | 2 | 107 | 0.0 | 0.0 | 0.00 | 0.00 | 0.00 | 96 | 1015.4 |
| 20260504224535 | 3 | 107 | 0.0 | 1.6 | 0.00 | 0.00 | 0.00 | 96 | 1015.6 |
| 20260504223026 | 3 | 107 | 1.6 | 3.2 | 0.00 | 0.00 | 0.00 | 96 | 1015.7 |
| 20260504220131 | 4 | 105 | 0.0 | 0.0 | 0.00 | 0.00 | 0.00 | 96 | 1015.9 |
| 20260504214531 | 5 | 105 | 0.0 | 0.0 | 0.00 | 0.00 | 0.00 | 96 | 1016.1 |
| 20260504213031 | 5 | 149 | 0.0 | 4.8 | 0.00 | 0.00 | 0.00 | 96 | 1016.2 |
| 20260504210056 | 6 | 83 | 3.2 | 6.4 | 0.00 | 0.00 | 0.00 | 95 | 1016.3 |
| 20260504203052 | 6 | 128 | 1.6 | 4.8 | 0.00 | 0.00 | 0.00 | 95 | 1016.4 |
| 20260504201539 | 6 | 124 | 0.0 | 1.6 | 0.00 | 0.00 | 0.00 | 95 | 1016.4 |
| 20260504200028 | 7 | 124 | 0.0 | 3.2 | 0.00 | 0.00 | 0.00 | 95 | 1016.4 |
| 20260504193052 | 8 | 124 | 4.8 | 9.7 | 0.00 | 0.00 | 0.00 | 94 | 1016.4 |
| 20260504191535 | 8 | 145 | 3.2 | 12.9 | 0.00 | 0.00 | 0.00 | 94 | 1016.4 |
| 20260504184555 | 8 | 136 | 8.0 | 12.9 | 0.00 | 0.00 | 0.00 | 94 | 1016.4 |
| 20260504181556 | 9 | 130 | 1.6 | 16.1 | 0.00 | 0.00 | 0.00 | 86 | 1016.3 |
| 20260504180054 | 9 | 136 | 1.6 | 6.4 | 0.00 | 0.00 | 0.00 | 84 | 1016.2 |
| 20260504174544 | 10 | 128 | 6.4 | 14.5 | 0.00 | 0.00 | 0.00 | 83 | 1016.3 |
| 20260504173036 | 9 | 158 | 3.2 | 14.5 | 0.00 | 0.00 | 0.00 | 82 | 1016.3 |
| 20260504171539 | 10 | 129 | 3.2 | 19.3 | 0.00 | 0.00 | 0.00 | 82 | 1016.4 |
| 20260504081547 | 11 | 133 | 8.0 | 16.1 | 0.00 | 0.00 | 0.00 | 77 | 1017.7 |
| 20260504050105 | 0 | 243 | 0.0 | 0.0 | 0.00 | 0.00 | 0.00 | 96 | 1017.1 |